Regional Weather Roundup
Issued by NWS

Home | Current Version | Previous Version | Graphics & Text | Print | Product List | Glossary On
Versions: 1 2 3 4 5 6 7 8 9 10 11 12 13 14 15 16 17 18 19 20 21 22 23 24 25 26 27 28 29 30 31 32 33 34 35 36 37 38 39 40 41 42 43 44 45 46 47 48 49 50
000
ASUS43 KOAX 280910
RWRNE

WEATHER ROUNDUP FOR NEBRASKA
NATIONAL WEATHER SERVICE OMAHA NE
400 AM CDT THU JUL 28 2016

NOTES: SATELLITE DATA IS BEING USED TO AUGMENT CLOUD COVER ABOVE
       12000 FEET.
       "FAIR" INDICATES FEW OR NO CLOUDS BELOW 12,000 FEET WITH NO
       SIGNIFICANT WEATHER AND/OR OBSTRUCTIONS TO VISIBILITY.

  * THESE STATIONS DO NOT REPORT WEATHER SUCH AS RAIN...SNOW OR FOG.

NEZ001>004-019>022-054>056-281000-
NEBRASKA PANHANDLE

CITY           SKY/WX    TMP DP  RH WIND       PRES   REMARKS
SCOTTSBLUFF    CLEAR     62  58  86 E9        30.13F
ALLIANCE       CLEAR     57  54  89 NE3       30.14S
CHADRON        MOCLDY    65  61  87 E6        30.14F
KIMBALL        CLEAR     61  61 100 SE6       30.16F
SIDNEY         CLOUDY    61  59  93 CALM      30.15F
$$

NEZ057>060-069>072-079>082-281000-
SOUTHWEST NEBRASKA

CITY           SKY/WX    TMP DP  RH WIND       PRES   REMARKS
NORTH PLATTE   MOCLDY    62  60  93 CALM      30.10S
IMPERIAL       CLOUDY    68  62  81 S13       30.06S
LEXINGTON      CLEAR     63  61  93 NW5       30.07F
MCCOOK         PTCLDY    68  65  90 N6        30.11S
OGALLALA       CLOUDY    66  59  76 E6        30.11F
$$

NEZ005>010-023>029-035>040-094-281000-
NORTH CENTRAL NEBRASKA

CITY           SKY/WX    TMP DP  RH WIND       PRES   REMARKS
VALENTINE      CLEAR     56  54  93 MISG      30.11F
AINSWORTH      CLEAR     58  57  98 NW5       30.10S
BROKEN BOW     CLEAR     59  58  96 CALM      30.07F
O`NEILL        CLEAR     62  61  95 CALM      30.08R
ORD            CLEAR     60  58  92 NW6       30.05F
THEDFORD       CLEAR     58  57  97 NE3       30.11R
$$

NEZ041-046>049-061>064-073>077-083>087-281000-
SOUTH CENTRAL NEBRASKA

CITY           SKY/WX    TMP DP  RH WIND       PRES   REMARKS
GRAND ISLAND   CLEAR     63  61  93 W6        30.04F
AURORA         CLEAR     63  62  97 NW5       30.02F
HASTINGS       CLEAR     64  61  90 CALM      30.04F
HEBRON         PTCLDY    68  65  89 CALM      30.00F
HOLDREGE       CLEAR     64  62  94 CALM      30.06S
KEARNEY *      CLEAR     63   7  11 N5        30.05S
YORK           CLEAR     64  63  94 CALM      30.02F
$$

NEZ011>018-030>034-042>045-281000-
NORTHEAST NEBRASKA

CITY           SKY/WX    TMP DP  RH WIND       PRES   REMARKS
NORFOLK        CLEAR     67  63  87 N3        30.04R
ALBION         CLEAR     63  60  88 N6        30.06R
BLAIR          MOCLDY    72  68  89 NE6       29.98F
FREMONT        CLOUDY    69  63  82 N3        30.00S
TEKAMAH        CLOUDY    70  66  87 N9        29.98F
WAYNE            N/A     63  62  96 CALM      30.03S
$$

NEZ050>053-065>068-078-088>093-281000-
SOUTHEAST NEBRASKA

CITY           SKY/WX    TMP DP  RH WIND       PRES   REMARKS
LINCOLN        CLOUDY    70  63  78 NW5       30.00S
OMAHA EPPLEY   PTCLDY    72  68  87 N3        29.97F
BEATRICE       CLOUDY    69  66  91 SW3       29.99F
FALLS CITY     CLEAR     70  69  97 NW5       29.95S
NEBRASKA CITY  CLEAR     70  70  99 NW6       29.97S
PLATTSMOUTH    CLEAR     69  67  94 NW3       29.98S
$$

NEZ044-045-051>053-067-281000-
OMAHA AREA

CITY           SKY/WX    TMP DP  RH WIND       PRES   REMARKS
OMAHA EPPLEY   PTCLDY    72  68  87 N3        29.97F
BLAIR          MOCLDY    72  68  89 NE6       29.98F
FREMONT        CLOUDY    69  63  82 N3        30.00S
MILLARD        CLOUDY    73  68  83 CALM      29.96F
OFFUTT AFB     PTCLDY    73  69  87 NE7       29.96F
PLATTSMOUTH    CLEAR     69  67  94 NW3       29.98S
WAHOO          FAIR      67  64  90 NW6       30.00R
$$



USA.gov is the U.S. government's official web portal to all federal, state and local government web resources and services.